Aberdeen, United Kingdom

3:22 PM BST on April 25, 2018 (GMT +0100)
Dyce

Weather History for EGPD - January, 2013

Change the Weather History Date:

Sunday, January 13, 2013

  Actual Average Record
Temperature  
Mean Temperature 34 °F -  
Max Temperature 37 °F 42 °F 57 °F (1997)
Min Temperature 30 °F 31 °F 26 °F (2000)
Degree Days  
Heating Degree Days 32    
Moisture  
Dew Point 32 °F    
Average Humidity 89    
Maximum Humidity 100    
Minimum Humidity 75    
Precipitation  
Precipitation 0.02 in 0.09 in - ()
Sea Level Pressure  
Sea Level Pressure 30.03 in    
Wind  
Wind Speed 7 mph ()    
Max Wind Speed 15 mph    
Max Gust Speed -    
Visibility 7.1 miles    
Events Rain , Snow    
Averages and records for this station are not official NWS values.
T = Trace of Precipitation, MM = Missing Value Source: Averaged Metar Reports

Daily Weather History Graph

Daily Weather History Graph

Search for Another Location

Airport or City:

Astronomy

Jan. 13, 2013 Rise Set
Actual Time 8:39 AM GMT 3:56 PM GMT
Civil Twilight 7:52 AM GMT 4:43 PM GMT
Nautical Twilight 7:02 AM GMT 5:32 PM GMT
Astronomical Twilight 6:16 AM GMT 6:19 PM GMT
Moon 8:55 AM GMT (1/13) 6:56 PM GMT (1/13)
Length of Visible Light 8h 51m
Length of Day
7h 17m
Waxing Crescent, 4% of the Moon is Illuminated
Jan 13
Waxing Crescent
Jan 18
First Quarter
Jan 27
Full
Feb 3
Last Quarter
Feb 10
New

Hourly Weather History & Observations

Time (GMT) Temp. Windchill Dew Point Humidity Pressure Visibility Wind Dir Wind Speed Gust Speed Precip Events Conditions
12:20 AM 35.6 °F 30.7 °F 33.8 °F 93% 30.09 in 6.2 mi SSW 5.8 mph - N/A   Scattered Clouds
12:50 AM 35.6 °F 30.7 °F 33.8 °F 93% 30.09 in 6.2 mi SSW 5.8 mph - N/A   Unknown
1:20 AM 35.6 °F 29.9 °F 32.0 °F 87% 30.09 in 6.2 mi SSW 6.9 mph - N/A   Partly Cloudy
1:50 AM 35.6 °F 31.7 °F 32.0 °F 87% 30.09 in 6.2 mi SSW 4.6 mph - N/A   Unknown
2:20 AM 33.8 °F 30.8 °F 32.0 °F 93% 30.09 in 6.2 mi South 3.5 mph - N/A   Partly Cloudy
2:50 AM 35 °F - 30 °F 75% 30.12 in 22 mi South 5.8 mph - -   Partly Cloudy
2:50 AM 33.8 °F 29.6 °F 30.2 °F 87% 30.09 in 6.2 mi South 4.6 mph - N/A   Unknown
3:20 AM 35.6 °F 30.7 °F 30.2 °F 81% 30.09 in 6.2 mi SSW 5.8 mph - N/A   Partly Cloudy
3:50 AM 35.6 °F 29.9 °F 30.2 °F 81% 30.09 in 6.2 mi SSW 6.9 mph - N/A   Unknown
4:20 AM 35.6 °F 29.2 °F 30.2 °F 81% 30.09 in 6.2 mi SW 8.1 mph - N/A   Scattered Clouds
4:50 AM 35.6 °F 29.9 °F 30.2 °F 81% 30.09 in 6.2 mi SW 6.9 mph - N/A   Scattered Clouds
5:20 AM 35.6 °F 28.6 °F 30.2 °F 81% 30.09 in 6.2 mi SW 9.2 mph - N/A   Partly Cloudy
5:50 AM 35 °F - 30 °F 77% 30.10 in 19 mi SSW 10.4 mph - -  
5:50 AM 35.6 °F 29.2 °F 30.2 °F 81% 30.09 in - SSW 8.1 mph - N/A   Clear
6:20 AM 35.6 °F 28.6 °F 30.2 °F 81% 30.06 in - SSW 9.2 mph - N/A   Clear
6:50 AM 35.6 °F 29.2 °F 30.2 °F 81% 30.06 in - SSW 8.1 mph - N/A   Clear
7:20 AM 35.6 °F 28.6 °F 32.0 °F 87% 30.06 in - SSW 9.2 mph - N/A   Clear
7:50 AM 33.8 °F 27.7 °F 32.0 °F 93% 30.06 in - South 6.9 mph - N/A   Clear
8:20 AM 35.6 °F 29.2 °F 32.0 °F 87% 30.06 in - SSW 8.1 mph - N/A   Clear
8:50 AM 35 °F - 31 °F 81% 30.10 in 15 mi SSW 12.7 mph - - Rain Light Rain Showers
8:50 AM 35.6 °F 28.6 °F 32.0 °F 87% 30.06 in 5.0 mi SSW 9.2 mph - N/A Rain Light Rain
9:20 AM 35.6 °F 28.0 °F 32.0 °F 87% 30.09 in 6.2 mi South 10.4 mph - N/A Rain Light Rain
9:50 AM 33.8 °F 27.0 °F 32.0 °F 93% 30.09 in 6.2 mi South 8.1 mph - N/A Snow Light Snow Showers
10:20 AM 35.6 °F 28.6 °F 32.0 °F 87% 30.06 in 6.2 mi South 9.2 mph - N/A Snow Light Snow Showers
10:50 AM 35.6 °F 27.5 °F 32.0 °F 87% 30.06 in 3.1 mi South 11.5 mph - N/A Snow Light Snow Showers
11:20 AM 35.6 °F 28.6 °F 32.0 °F 87% 30.06 in 6.2 mi South 9.2 mph - N/A   Scattered Clouds
11:50 AM 36 °F - 32 °F 79% 30.06 in 19 mi South 15.0 mph - - Rain Rain
11:50 AM 35.6 °F 28.0 °F 32.0 °F 87% 30.04 in 6.2 mi South 10.4 mph - N/A   Partly Cloudy
12:20 PM 35.6 °F 27.5 °F 32.0 °F 87% 30.04 in 6.2 mi South 11.5 mph - N/A   Partly Cloudy
12:50 PM 35.6 °F 27.1 °F 32.0 °F 87% 30.04 in 6.2 mi South 12.7 mph - N/A   Mostly Cloudy
1:20 PM 35.6 °F 27.1 °F 32.0 °F 87% 30.04 in 6.2 mi SSW 12.7 mph - N/A Rain , Snow Light Rain Showers
1:50 PM 35.6 °F 27.1 °F 33.8 °F 93% 30.01 in 2.5 mi South 12.7 mph - N/A Rain Rain
2:20 PM 35.6 °F 27.1 °F 33.8 °F 93% 30.01 in 3.7 mi South 12.7 mph - N/A Rain , Snow Light Rain Showers
2:50 PM 35 °F - 33 °F 89% 30.03 in 9 mi South 12.7 mph - - Rain Light Rain
2:50 PM 35.6 °F 28.0 °F 33.8 °F 93% 30.01 in 5.0 mi South 10.4 mph - N/A Rain , Snow Light Rain Showers
3:20 PM 35.6 °F 28.0 °F 33.8 °F 93% 30.01 in 5.0 mi South 10.4 mph - N/A Rain , Snow Light Rain
3:50 PM 35.6 °F 28.6 °F 33.8 °F 93% 30.01 in 6.2 mi SSW 9.2 mph - N/A   Scattered Clouds
4:20 PM 35.6 °F 28.6 °F 33.8 °F 93% 30.01 in 6.2 mi South 9.2 mph - N/A Rain Light Rain Showers
4:50 PM 35.6 °F 30.7 °F 32.0 °F 87% 29.98 in 6.2 mi South 5.8 mph - N/A   Mostly Cloudy
5:20 PM 35.6 °F 32.8 °F 32.0 °F 87% 29.98 in 6.2 mi Variable 3.5 mph - N/A Rain Light Rain Showers
5:50 PM 35 °F - 33 °F 88% 30.01 in 14 mi South 4.6 mph - -   Unknown Precipitation
5:50 PM 35.6 °F 31.7 °F 33.8 °F 93% 29.98 in 6.2 mi South 4.6 mph - N/A Rain Light Rain
6:20 PM 35.6 °F 32.8 °F 33.8 °F 93% 29.98 in 6.2 mi Variable 3.5 mph - N/A Rain Light Rain
6:50 PM 35.6 °F - 32.0 °F 87% 29.98 in 6.2 mi Variable 2.3 mph - N/A Rain Light Rain
7:20 PM 33.8 °F 29.6 °F 32.0 °F 93% 29.98 in 6.2 mi SSE 4.6 mph - N/A   Scattered Clouds
7:50 PM 33.8 °F 29.6 °F 32.0 °F 93% 29.98 in 6.2 mi SE 4.6 mph - N/A   Scattered Clouds
8:20 PM 33.8 °F - 32.0 °F 93% 29.98 in 6.2 mi SE 2.3 mph - N/A   Scattered Clouds
8:50 PM 35 °F - 33 °F 88% 29.99 in 12 mi WSW 5.8 mph - - Rain Light Rain Showers
8:50 PM 35.6 °F 32.8 °F 33.8 °F 93% 29.98 in 6.2 mi Variable 3.5 mph - N/A Rain Light Rain
9:20 PM 35.6 °F 31.7 °F 33.8 °F 93% 29.95 in 6.2 mi South 4.6 mph - N/A Rain Light Rain
9:50 PM 33.8 °F 30.8 °F 32.0 °F 93% 29.95 in 6.2 mi SSE 3.5 mph - N/A   Mostly Cloudy
10:20 PM 33.8 °F 28.6 °F 32.0 °F 93% 29.95 in 6.2 mi South 5.8 mph - N/A   Scattered Clouds
10:50 PM 32.0 °F 26.4 °F 32.0 °F 100% 29.95 in 6.2 mi South 5.8 mph - N/A   Scattered Clouds
11:20 PM 30.2 °F 25.4 °F 30.2 °F 100% 29.95 in - South 4.6 mph - N/A   Clear
11:50 PM 31 °F - 31 °F 97% 29.95 in 9 mi SSW 1.2 mph - -  
11:50 PM 30.2 °F 25.4 °F 30.2 °F 100% 29.92 in - SSE 4.6 mph - N/A   Clear